�N����,����,�~����,�C��,���x,�C��,����,���ϕ���,�ő�u�ԕ���,�ő厞����,���˗�,�I�_���x,�n�����x,�ő啗���N��,DTYPE
"17/09/03","00:10",0.0,21.3,81.6,1001.9,324.7,1.7,3.5,328.3,0.00,18.1,24.3,"00:03:52",1
"17/09/03","00:20",0.0,21.3,81.4,1002.4,331.0,2.2,3.4,338.0,0.00,18.0,24.2,"00:19:52",1
"17/09/03","00:30",0.0,21.4,81.1,1002.4,322.5,1.6,2.6,299.1,0.00,18.1,24.1,"00:24:48",1
"17/09/03","00:40",0.0,21.1,81.9,1002.4,329.0,1.7,3.5,333.7,0.00,17.9,24.0,"00:35:12",1
"17/09/03","00:50",0.0,21.0,82.2,1002.6,328.5,1.6,3.1,333.0,0.00,17.9,23.9,"00:46:40",1
"17/09/03","01:00",0.0,20.9,82.6,1002.6,321.9,1.3,2.2,332.6,0.00,17.9,24.0,"00:50:40",1
"17/09/03","01:10",0.0,20.9,82.8,1002.6,313.4,1.2,2.5,329.9,0.00,17.9,24.0,"01:02:40",1
"17/09/03","01:20",0.0,20.7,83.0,1002.4,330.2,1.3,2.4,342.1,0.00,17.8,24.0,"01:17:36",1
"17/09/03","01:30",0.0,20.2,83.9,1002.4,331.2,1.3,2.0,329.4,0.00,17.4,23.7,"01:22:24",1
"17/09/03","01:40",0.0,19.8,85.1,1002.2,334.6,1.5,2.4,339.8,0.00,17.3,23.6,"01:31:28",1
"17/09/03","01:50",0.0,19.6,85.7,1002.6,306.4,1.1,1.8,318.7,0.00,17.2,23.7,"01:49:28",1
"17/09/03","02:00",0.0,19.4,86.2,1002.9,300.5,1.1,2.2,312.1,0.00,17.1,23.5,"01:50:08",1
"17/09/03","02:10",0.0,19.2,86.6,1002.9,300.2,1.1,2.0,335.4,0.00,17.0,23.6,"02:01:20",1
"17/09/03","02:20",0.0,19.1,87.1,1003.4,317.7,1.5,2.2,337.8,0.00,16.9,23.3,"02:18:56",1
"17/09/03","02:30",0.0,19.0,87.6,1003.4,304.6,1.2,2.1,314.3,0.00,16.9,23.3,"02:25:12",1
"17/09/03","02:40",0.0,18.7,88.0,1003.6,311.6,1.0,1.7,319.2,0.00,16.7,23.3,"02:33:28",1
"17/09/03","02:50",0.0,18.6,88.8,1003.6,294.1,1.3,2.2,313.0,0.00,16.8,23.1,"02:46:32",1
"17/09/03","03:00",0.0,18.6,88.8,1002.9,307.1,1.5,2.2,308.3,0.00,16.8,23.1,"02:52:40",1
"17/09/03","03:10",0.0,18.4,89.2,1003.4,304.4,1.3,2.7,325.0,0.00,16.6,23.0,"03:08:24",1
"17/09/03","03:20",0.0,18.3,89.3,1003.4,313.9,1.6,2.4,318.9,0.00,16.5,23.0,"03:14:00",1
"17/09/03","03:30",0.0,18.3,89.6,1003.1,330.0,1.5,2.1,327.1,0.00,16.6,22.9,"03:24:16",1
"17/09/03","03:40",0.0,18.2,89.6,1002.9,294.6,1.3,2.0,270.4,0.00,16.5,22.9,"03:39:52",1
"17/09/03","03:50",0.0,18.1,89.7,1003.6,306.6,1.6,2.5,316.8,0.00,16.4,23.0,"03:48:48",1
"17/09/03","04:00",0.0,18.0,89.5,1003.6,301.4,1.3,2.1,326.6,0.00,16.3,22.8,"03:51:28",1
"17/09/03","04:10",0.0,18.1,90.0,1003.4,316.8,2.0,3.1,328.4,0.00,16.5,22.8,"04:07:08",1
"17/09/03","04:20",0.0,18.3,89.6,1003.8,315.9,2.0,3.1,325.9,0.00,16.6,22.6,"04:13:44",1
"17/09/03","04:30",0.0,18.3,89.3,1003.6,303.2,1.2,1.9,324.5,0.00,16.5,22.7,"04:28:40",1
"17/09/03","04:40",0.0,18.4,89.5,1003.8,316.0,1.6,2.2,316.2,0.00,16.7,22.7,"04:35:36",1
"17/09/03","04:50",0.0,18.4,89.5,1004.1,324.3,1.5,2.0,326.0,0.00,16.7,22.5,"04:42:16",1
"17/09/03","05:00",0.0,18.3,89.1,1004.1,324.9,1.7,2.6,330.8,0.00,16.5,22.5,"04:57:28",1
"17/09/03","05:10",0.0,18.1,89.0,1004.3,318.9,1.7,2.4,314.4,0.00,16.3,22.6,"05:06:00",1
"17/09/03","05:20",0.0,18.0,89.3,1004.1,322.2,1.7,3.1,336.8,0.00,16.3,22.2,"05:14:24",1
"17/09/03","05:30",0.0,17.9,89.6,1004.3,322.0,1.8,2.8,317.4,0.00,16.2,22.4,"05:20:08",1
"17/09/03","05:40",0.0,17.9,89.6,1004.3,300.2,1.5,2.0,309.3,0.00,16.2,22.4,"05:33:20",1
"17/09/03","05:50",0.0,18.0,89.7,1004.5,324.9,1.5,1.9,330.5,0.00,16.3,22.4,"05:40:24",1
"17/09/03","06:00",0.0,18.2,89.9,1004.8,324.5,1.6,2.0,334.3,0.00,16.6,22.3,"05:57:20",1
"17/09/03","06:10",0.0,18.7,89.1,1004.8,322.9,1.3,3.1,332.7,0.01,16.9,22.3,"06:09:12",1
"17/09/03","06:20",0.0,19.5,87.0,1005.0,334.1,1.5,2.7,312.9,0.02,17.3,22.4,"06:12:56",1
"17/09/03","06:30",0.0,20.2,84.3,1005.0,337.9,1.1,2.0,349.9,0.03,17.5,22.3,"06:21:04",1
"17/09/03","06:40",0.0,21.1,79.8,1005.7,323.1,0.7,1.3,330.5,0.04,17.5,22.5,"06:30:32",1
"17/09/03","06:50",0.0,21.5,78.5,1005.2,325.9,1.2,2.0,341.5,0.05,17.6,22.6,"06:45:04",1
"17/09/03","07:00",0.0,22.2,76.2,1005.0,322.9,0.7,1.6,340.1,0.08,17.9,22.7,"06:51:36",1
"17/09/03","07:10",0.0,22.3,75.8,1004.8,297.7,0.5,1.6,311.1,0.06,17.9,22.7,"07:08:40",1
"17/09/03","07:20",0.0,23.6,72.0,1004.8,340.8,0.5,1.3,355.7,0.17,18.3,22.9,"07:19:28",1
"17/09/03","07:30",0.0,23.4,71.2,1005.0,337.5,0.6,2.4,347.8,0.13,17.9,23.2,"07:26:48",1
"17/09/03","07:40",0.0,23.8,71.8,1005.0,303.6,0.5,1.6,330.6,0.12,18.4,23.3,"07:31:20",1
"17/09/03","07:50",0.0,23.9,71.7,1004.5,233.2,1.0,1.9,240.5,0.17,18.5,23.4,"07:49:52",1
"17/09/03","08:00",0.0,24.7,68.7,1004.5,214.7,0.6,2.0,237.8,0.23,18.6,23.7,"07:50:08",1
"17/09/03","08:10",0.0,24.3,67.8,1004.8,193.2,1.1,2.5,228.2,0.17,18.0,23.8,"08:01:36",1
"17/09/03","08:20",0.0,24.4,68.0,1004.5,117.4,0.5,1.6,83.0,0.15,18.2,23.8,"08:10:40",1
"17/09/03","08:30",0.0,25.1,66.7,1004.5,206.0,0.5,2.0,214.1,0.18,18.5,23.8,"08:20:02",1
"17/09/03","08:40",0.0,24.6,66.8,1004.5,227.6,0.7,1.6,190.2,0.12,18.1,24.1,"08:30:24",1
"17/09/03","08:50",0.0,24.3,68.1,1004.5,296.7,1.2,2.9,335.7,0.12,18.1,24.2,"08:48:56",1
"17/09/03","09:00",0.0,24.5,68.6,1004.5,311.9,1.2,2.9,331.9,0.16,18.4,24.1,"08:54:48",1
"17/09/03","09:10",0.0,24.5,67.3,1004.8,282.7,1.0,2.5,335.1,0.14,18.1,24.2,"09:05:52",1
"17/09/03","09:20",0.0,24.9,65.9,1004.8,288.0,0.8,1.6,258.8,0.14,18.1,24.5,"09:11:28",1
"17/09/03","09:30",0.0,25.7,63.7,1004.8,340.1,0.7,2.0,339.5,0.26,18.3,24.6,"09:24:08",1
"17/09/03","09:40",0.0,26.2,59.9,1004.5,294.8,1.1,2.6,355.9,0.35,17.8,24.7,"09:38:08",1
"17/09/03","09:50",0.0,26.8,58.8,1004.5,1.5,2.0,3.7,326.3,0.40,18.1,25.2,"09:49:04",1
"17/09/03","10:00",0.0,27.2,54.2,1004.1,358.8,2.0,4.4,351.5,0.44,17.2,25.3,"09:59:12",1
"17/09/03","10:10",0.0,27.3,54.4,1004.1,29.8,1.8,4.0,81.5,0.36,17.3,25.4,"10:08:24",1
"17/09/03","10:20",0.0,26.9,56.6,1004.3,12.1,2.3,4.7,358.4,0.34,17.6,25.6,"10:12:48",1
"17/09/03","10:30",0.0,26.9,53.6,1004.1,357.8,1.7,4.0,337.3,0.36,16.7,25.8,"10:20:08",1
"17/09/03","10:40",0.0,28.0,52.9,1004.5,316.7,1.0,2.6,333.0,0.43,17.5,26.2,"10:36:56",1
"17/09/03","10:50",0.0,28.0,49.5,1004.8,43.0,1.8,5.7,75.9,0.49,16.5,26.4,"10:46:32",1
"17/09/03","11:00",0.0,28.6,48.5,1004.5,11.6,1.8,3.6,345.9,0.47,16.7,26.5,"10:59:04",1
"17/09/03","11:10",0.0,27.2,50.8,1004.3,354.5,2.1,4.5,355.9,0.31,16.2,26.7,"11:03:04",1
"17/09/03","11:20",0.0,26.1,57.0,1004.1,340.7,2.7,5.8,337.7,0.18,17.0,26.6,"11:13:12",1
"17/09/03","11:30",0.0,27.9,52.1,1004.1,347.7,2.5,5.2,9.2,0.54,17.2,27.0,"11:26:00",1
"17/09/03","11:40",0.0,29.0,51.0,1004.5,357.3,1.8,4.4,346.4,0.58,17.9,27.2,"11:30:02",1
"17/09/03","11:50",0.0,27.3,52.2,1004.5,345.6,2.7,7.3,336.1,0.30,16.7,27.4,"11:47:04",1
"17/09/03","12:00",0.0,26.3,55.0,1004.1,344.9,2.5,4.5,329.9,0.13,16.6,27.1,"11:54:56",1
"17/09/03","12:10",0.0,28.2,50.4,1003.8,331.0,2.8,5.0,324.9,0.57,17.0,27.5,"12:08:24",1
"17/09/03","12:20",0.0,29.0,47.1,1004.1,343.6,2.6,5.6,309.9,0.58,16.6,28.0,"12:14:08",1
"17/09/03","12:30",0.0,29.1,47.0,1004.3,343.1,1.7,6.3,355.4,0.52,16.7,28.2,"12:26:24",1
"17/09/03","12:40",0.0,29.3,49.2,1004.5,345.1,1.8,4.7,325.0,0.49,17.6,28.5,"12:31:12",1
"17/09/03","12:50",0.0,28.9,45.9,1004.8,349.5,1.8,3.9,88.9,0.48,16.1,28.7,"12:48:40",1
"17/09/03","13:00",0.0,29.1,46.8,1004.5,29.7,1.6,3.7,56.6,0.50,16.6,28.8,"12:58:48",1
"17/09/03","13:10",0.0,28.8,47.4,1004.8,28.6,1.6,4.2,51.5,0.41,16.5,28.8,"13:03:12",1
"17/09/03","13:20",0.0,27.6,50.3,1004.5,22.1,2.3,5.7,68.1,0.24,16.4,28.8,"13:19:12",1
"17/09/03","13:30",0.0,28.2,50.2,1004.1,7.8,1.8,5.7,344.8,0.38,16.9,28.8,"13:23:44",1
"17/09/03","13:40",0.0,29.5,46.7,1004.5,354.5,1.8,5.6,337.5,0.52,16.9,29.1,"13:33:04",1
"17/09/03","13:50",0.0,29.3,47.9,1004.5,350.5,2.3,5.2,353.5,0.51,17.2,29.5,"13:40:56",1
"17/09/03","14:00",0.0,29.5,45.5,1004.5,320.7,1.8,5.6,353.1,0.51,16.5,29.5,"13:59:28",1
"17/09/03","14:10",0.0,29.3,45.8,1004.5,344.2,2.0,6.6,341.1,0.44,16.5,29.6,"14:08:24",1
"17/09/03","14:20",0.0,28.8,49.3,1004.5,341.1,2.6,6.0,334.6,0.36,17.2,29.5,"14:11:28",1
"17/09/03","14:30",0.0,28.8,49.0,1004.8,352.8,2.1,4.2,352.6,0.40,17.1,29.2,"14:20:24",1
"17/09/03","14:40",0.0,28.8,50.7,1004.3,349.6,2.3,5.7,346.2,0.34,17.6,29.2,"14:38:32",1
"17/09/03","14:50",0.0,28.4,50.6,1003.8,345.9,3.1,6.6,342.3,0.44,17.2,29.3,"14:44:24",1
"17/09/03","15:00",0.0,28.1,51.7,1004.1,338.9,2.8,5.9,345.9,0.38,17.3,29.3,"14:51:36",1
"17/09/03","15:10",0.0,28.1,52.1,1003.8,1.7,2.3,4.8,355.3,0.33,17.4,29.0,"15:04:08",1
"17/09/03","15:20",0.0,27.7,50.9,1004.3,358.9,2.7,5.8,30.8,0.32,16.7,29.0,"15:18:24",1
"17/09/03","15:30",0.0,27.6,51.9,1004.3,11.9,2.6,5.9,353.1,0.33,16.9,29.3,"15:26:00",1
"17/09/03","15:40",0.0,28.2,50.8,1003.6,2.6,2.2,8.1,344.5,0.29,17.1,29.2,"15:38:40",1
"17/09/03","15:50",0.0,28.4,51.3,1003.6,353.9,2.1,4.3,359.7,0.26,17.4,29.1,"15:48:24",1
"17/09/03","16:00",0.0,28.2,48.4,1003.6,8.3,2.5,5.4,65.8,0.24,16.3,29.0,"15:57:28",1
"17/09/03","16:10",0.0,27.8,49.1,1003.6,10.1,2.7,5.2,37.4,0.22,16.2,28.5,"16:04:40",1
"17/09/03","16:20",0.0,27.7,49.8,1004.3,358.0,2.6,5.6,18.0,0.19,16.3,28.7,"16:12:24",1
"17/09/03","16:30",0.0,27.6,49.4,1004.3,353.3,2.3,5.9,357.9,0.16,16.1,28.6,"16:28:16",1
"17/09/03","16:40",0.0,27.1,51.0,1004.5,358.6,3.0,5.4,352.2,0.14,16.1,28.3,"16:33:36",1
"17/09/03","16:50",0.0,26.9,53.0,1005.0,348.6,2.1,4.0,356.8,0.11,16.6,28.0,"16:41:12",1
"17/09/03","17:00",0.0,26.9,54.3,1004.5,342.0,2.0,3.7,332.9,0.09,16.9,28.1,"16:53:12",1
"17/09/03","17:10",0.0,26.7,54.3,1005.2,345.7,2.0,4.3,318.7,0.07,16.8,28.0,"17:09:52",1
"17/09/03","17:20",0.0,26.1,56.5,1005.2,340.5,2.2,4.7,349.2,0.05,16.8,27.7,"17:19:44",1
"17/09/03","17:30",0.0,25.6,58.3,1005.0,337.9,2.6,5.5,348.5,0.03,16.9,27.4,"17:25:12",1
"17/09/03","17:40",0.0,25.0,58.6,1005.5,346.8,2.1,4.9,358.3,0.02,16.4,27.5,"17:30:48",1
"17/09/03","17:50",0.0,24.5,60.2,1005.2,336.0,2.6,4.9,334.5,0.00,16.3,27.2,"17:41:20",1
"17/09/03","18:00",0.0,24.0,61.8,1005.7,327.1,2.2,4.7,341.3,0.00,16.3,27.0,"17:52:32",1
"17/09/03","18:10",0.0,23.7,63.5,1006.0,319.8,2.2,4.2,327.8,0.00,16.4,26.7,"18:05:04",1
"17/09/03","18:20",0.0,23.4,64.3,1006.2,308.5,2.3,5.1,346.7,0.00,16.3,26.7,"18:13:12",1
"17/09/03","18:30",0.0,23.1,65.0,1006.2,323.1,2.6,4.8,323.7,0.00,16.2,26.5,"18:26:24",1
"17/09/03","18:40",0.0,22.9,66.6,1006.7,333.1,2.7,5.0,327.6,0.00,16.4,26.4,"18:38:56",1
"17/09/03","18:50",0.0,22.8,67.5,1006.7,335.3,2.7,5.9,342.3,0.00,16.5,26.2,"18:45:44",1
"17/09/03","19:00",0.0,22.7,68.4,1007.1,336.0,2.5,4.3,336.4,0.00,16.6,25.9,"18:56:24",1
"17/09/03","19:10",0.0,22.5,69.2,1007.1,322.8,2.5,5.9,342.5,0.00,16.6,26.0,"19:01:28",1
"17/09/03","19:20",0.0,22.3,70.0,1006.9,321.3,2.1,3.5,324.6,0.00,16.6,25.8,"19:18:16",1
"17/09/03","19:30",0.0,22.1,71.1,1007.4,329.8,2.0,4.5,339.7,0.00,16.7,25.5,"19:21:36",1
"17/09/03","19:40",0.0,21.9,71.8,1007.6,330.1,2.7,5.1,335.8,0.00,16.6,25.6,"19:33:12",1
"17/09/03","19:50",0.0,21.9,72.0,1007.6,332.2,3.1,5.9,349.3,0.00,16.7,25.6,"19:49:52",1
"17/09/03","20:00",0.0,21.9,71.7,1007.4,329.7,2.8,5.0,316.5,0.00,16.6,25.3,"19:56:00",1
"17/09/03","20:10",0.0,21.9,71.6,1008.3,330.7,3.0,5.7,335.7,0.00,16.6,25.3,"20:03:52",1
"17/09/03","20:20",0.0,21.8,71.6,1008.3,322.9,1.7,4.4,328.3,0.00,16.5,25.0,"20:14:08",1
"17/09/03","20:30",0.0,21.6,72.3,1008.3,301.4,1.2,2.1,332.9,0.00,16.4,25.0,"20:24:24",1
"17/09/03","20:40",0.0,21.4,72.8,1008.6,315.1,1.5,2.8,355.0,0.00,16.4,24.8,"20:38:40",1
"17/09/03","20:50",0.0,21.4,73.1,1008.3,328.5,2.2,4.0,328.1,0.00,16.4,24.7,"20:49:20",1
"17/09/03","21:00",0.0,21.5,72.7,1008.1,327.8,2.3,4.0,331.5,0.00,16.4,24.7,"20:57:04",1
"17/09/03","21:10",0.0,21.5,72.4,1008.6,326.5,2.1,5.0,335.9,0.00,16.4,24.6,"21:06:16",1
"17/09/03","21:20",0.0,21.4,72.6,1008.3,327.7,2.5,4.8,311.7,0.00,16.3,24.6,"21:10:56",1
"17/09/03","21:30",0.0,21.2,72.9,1008.8,314.9,2.1,4.0,340.3,0.00,16.2,24.4,"21:22:56",1
"17/09/03","21:40",0.0,21.3,72.1,1008.6,311.8,2.3,5.1,337.4,0.00,16.1,24.5,"21:30:02",1
"17/09/03","21:50",0.0,21.5,71.4,1008.6,330.2,2.8,5.4,328.6,0.00,16.2,24.3,"21:40:56",1
"17/09/03","22:00",0.0,21.2,71.8,1008.8,333.6,2.2,3.9,338.1,0.00,16.0,24.2,"21:57:20",1
"17/09/03","22:10",0.0,21.0,72.1,1009.0,321.1,2.0,4.1,333.1,0.00,15.8,24.1,"22:04:24",1
"17/09/03","22:20",0.0,20.8,73.0,1009.0,336.0,1.6,2.8,326.0,0.00,15.8,24.1,"22:11:04",1
"17/09/03","22:30",0.0,20.3,74.7,1009.3,309.7,1.1,2.2,313.4,0.00,15.7,23.9,"22:21:52",1
"17/09/03","22:40",0.0,19.6,77.3,1009.3,314.7,0.8,1.6,323.3,0.00,15.6,23.9,"22:33:36",1
"17/09/03","22:50",0.0,18.8,80.0,1009.3,311.7,1.1,1.6,317.7,0.00,15.3,23.8,"22:43:28",1
"17/09/03","23:00",0.0,18.5,82.0,1009.5,310.0,1.2,1.6,335.4,0.00,15.4,23.7,"22:50:16",1
"17/09/03","23:10",0.0,18.2,83.2,1009.5,310.8,0.8,1.6,341.9,0.00,15.3,23.4,"23:04:16",1
"17/09/03","23:20",0.0,18.0,84.2,1009.3,328.8,0.7,1.9,325.7,0.00,15.3,23.4,"23:17:12",1
"17/09/03","23:30",0.0,17.5,86.1,1009.5,309.2,1.3,2.1,334.5,0.00,15.2,23.3,"23:28:08",1
"17/09/03","23:40",0.0,17.5,87.3,1009.3,310.1,1.3,1.8,325.2,0.00,15.4,23.3,"23:33:52",1
"17/09/03","23:50",0.0,17.6,87.3,1009.5,315.2,1.3,1.8,336.2,0.00,15.5,23.1,"23:41:36",1
"17/09/03","24:00",0.0,17.5,88.1,1009.5,315.8,1.3,2.2,320.4,0.00,15.5,23.1,"23:50:56",1
